| time (UTC) | temp C | wind direction | speed KPH | gust KPH | rain 1hr cm | rain 24hr cm | rain mn cm | humidity % | barometer mb |
| 20260904043031 | 13 | 212 | 4.8 | 11.3 | 0.00 | 0.81 | 0.00 | 91 | 1003.7 |
| 20260904041529 | 13 | 219 | 3.2 | 14.5 | 0.00 | 0.81 | 0.00 | 91 | 1003.8 |
| 20260904040035 | 13 | 240 | 3.2 | 11.3 | 0.00 | 0.81 | 0.00 | 91 | 1003.9 |
| 20260904034533 | 13 | 245 | 3.2 | 14.5 | 0.00 | 0.81 | 0.00 | 91 | 1004.1 |
| 20260904033026 | 13 | 234 | 3.2 | 11.3 | 0.00 | 0.81 | 0.00 | 91 | 1004.1 |
| 20260904031524 | 13 | 235 | 6.4 | 14.5 | 0.00 | 0.81 | 0.00 | 91 | 1004.4 |
| 20260904030024 | 13 | 230 | 3.2 | 12.9 | 0.00 | 0.81 | 0.00 | 91 | 1004.5 |
| 20260904024524 | 13 | 251 | 4.8 | 14.5 | 0.00 | 0.84 | 0.00 | 91 | 1004.6 |
| 20260904023021 | 13 | 250 | 4.8 | 16.1 | 0.00 | 0.84 | 0.00 | 91 | 1004.8 |
| 20260904021519 | 13 | 260 | 3.2 | 12.9 | 0.00 | 0.84 | 0.00 | 91 | 1004.9 |
| 20260904020018 | 13 | 264 | 6.4 | 20.9 | 0.00 | 0.84 | 0.00 | 91 | 1005.1 |
| 20260904014525 | 13 | 269 | 3.2 | 17.7 | 0.00 | 0.84 | 0.00 | 91 | 1005.0 |
| 20260904013020 | 13 | 296 | 4.8 | 14.5 | 0.00 | 0.84 | 0.00 | 91 | 1005.4 |
| 20260904011527 | 13 | 272 | 4.8 | 16.1 | 0.00 | 0.84 | 0.00 | 91 | 1005.6 |
| 20260904010013 | 13 | 270 | 12.9 | 22.5 | 0.00 | 0.84 | 0.00 | 91 | 1005.6 |
| 20260904004510 | 13 | 282 | 16.1 | 25.7 | 0.00 | 0.84 | 0.00 | 91 | 1005.6 |
| 20260904003012 | 14 | 284 | 8.0 | 20.9 | 0.00 | 0.84 | 0.00 | 92 | 1005.8 |
| 20260904001504 | 14 | 264 | 8.0 | 19.3 | 0.00 | 0.84 | 0.00 | 92 | 1005.7 |
| 20260904000003 | 14 | 265 | 9.7 | 22.5 | 0.00 | 0.84 | 0.00 | 92 | 1005.8 |
| 20260903234502 | 14 | 252 | 6.4 | 20.9 | 0.00 | 0.84 | 0.00 | 92 | 1005.7 |
| 20260903233001 | 14 | 264 | 8.0 | 20.9 | 0.00 | 0.84 | 0.00 | 92 | 1005.8 |
| 20260903231559 | 14 | 271 | 6.4 | 20.9 | 0.00 | 0.84 | 0.00 | 92 | 1005.7 |
| 20260903230056 | 14 | 269 | 8.0 | 17.7 | 0.00 | 0.84 | 0.00 | 92 | 1006.0 |
| 20260903224554 | 14 | 260 | 6.4 | 19.3 | 0.00 | 0.84 | 0.00 | 92 | 1005.8 |
| 20260903223056 | 14 | 281 | 4.8 | 16.1 | 0.00 | 0.84 | 0.00 | 92 | 1005.8 |
| 20260903221551 | 14 | 259 | 4.8 | 16.1 | 0.00 | 0.84 | 0.00 | 92 | 1005.8 |
| 20260903214548 | 14 | 274 | 6.4 | 20.9 | 0.00 | 0.84 | 0.84 | 92 | 1006.1 |
| 20260903213049 | 14 | 271 | 8.0 | 17.7 | 0.00 | 0.84 | 0.84 | 92 | 1006.0 |
| 20260903211546 | 15 | 250 | 8.0 | 17.7 | 0.00 | 0.84 | 0.84 | 91 | 1005.9 |
| 20260903210055 | 15 | 279 | 17.7 | 25.7 | 0.00 | 0.84 | 0.84 | 91 | 1005.9 |
| 20260903204546 | 15 | 275 | 16.1 | 27.4 | 0.00 | 0.84 | 0.84 | 91 | 1006.0 |
| 20260903203046 | 15 | 275 | 12.9 | 27.4 | 0.00 | 0.84 | 0.84 | 91 | 1006.1 |
| 20260903201545 | 15 | 285 | 16.1 | 25.7 | 0.00 | 0.84 | 0.84 | 90 | 1006.1 |
| 20260903200045 | 15 | 281 | 17.7 | 30.6 | 0.00 | 0.84 | 0.84 | 91 | 1006.2 |
| 20260903194549 | 15 | 276 | 19.3 | 35.4 | 0.00 | 0.84 | 0.84 | 91 | 1006.0 |
| 20260903193052 | 15 | 253 | 16.1 | 29.0 | 0.00 | 0.84 | 0.84 | 92 | 1006.1 |
| 20260903191545 | 15 | 257 | 11.3 | 22.5 | 0.00 | 0.84 | 0.84 | 92 | 1006.3 |
| 20260903190047 | 15 | 284 | 14.5 | 29.0 | 0.00 | 0.84 | 0.84 | 92 | 1006.4 |
| 20260903184542 | 15 | 259 | 17.7 | 29.0 | 0.00 | 0.84 | 0.84 | 92 | 1006.1 |
| 20260903183045 | 16 | 290 | 16.1 | 25.7 | 0.00 | 0.84 | 0.84 | 92 | 1006.0 |
| 20260903181540 | 16 | 284 | 20.9 | 33.8 | 0.00 | 0.84 | 0.84 | 92 | 1006.0 |
| 20260903180038 | 16 | 275 | 20.9 | 32.2 | 0.00 | 0.84 | 0.84 | 92 | 1005.9 |
| 20260903174537 | 16 | 281 | 20.9 | 35.4 | 0.00 | 0.84 | 0.84 | 92 | 1005.7 |
| 20260903173038 | 16 | 294 | 27.4 | 40.2 | 0.00 | 0.84 | 0.84 | 92 | 1005.5 |
| 20260903171532 | 16 | 283 | 22.5 | 38.6 | 0.00 | 0.84 | 0.84 | 92 | 1005.2 |
| 20260903170033 | 17 | 275 | 14.5 | 27.4 | 0.00 | 0.84 | 0.84 | 91 | 1005.1 |
| 20260903164529 | 17 | 288 | 11.3 | 24.1 | 0.00 | 0.84 | 0.84 | 91 | 1004.9 |
| 20260903163029 | 17 | 311 | 17.7 | 33.8 | 0.00 | 0.84 | 0.84 | 90 | 1004.8 |
| 20260903161528 | 17 | 279 | 27.4 | 41.8 | 0.00 | 0.84 | 0.84 | 90 | 1004.6 |
| 20260903160028 | 18 | 304 | 17.7 | 38.6 | 0.00 | 0.84 | 0.84 | 92 | 1004.6 |
| 20260903154527 | 18 | 281 | 20.9 | 29.0 | 0.00 | 0.84 | 0.84 | 92 | 1004.4 |
| 20260903153026 | 18 | 290 | 19.3 | 40.2 | 0.00 | 0.84 | 0.84 | 92 | 1004.5 |
| 20260903151530 | 18 | 261 | 30.6 | 46.7 | 0.00 | 0.84 | 0.84 | 92 | 1004.5 |
| 20260903150039 | 18 | 284 | 16.1 | 33.8 | 0.30 | 0.84 | 0.84 | 93 | 1004.4 |
| 20260903144524 | 18 | 265 | 19.3 | 41.8 | 0.30 | 0.84 | 0.84 | 94 | 1004.4 |
| 20260903143036 | 18 | 258 | 12.9 | 29.0 | 0.30 | 0.84 | 0.84 | 94 | 1004.3 |
| 20260903141531 | 17 | 235 | 12.9 | 24.1 | 0.28 | 0.81 | 0.81 | 94 | 1004.5 |
| 20260903140021 | 18 | 265 | 14.5 | 20.9 | 0.03 | 0.53 | 0.53 | 94 | 1004.5 |
| 20260903134535 | 17 | 229 | 8.0 | 19.3 | 0.03 | 0.53 | 0.53 | 95 | 1004.5 |
| 20260903133015 | 17 | 219 | 11.3 | 24.1 | 0.20 | 0.53 | 0.53 | 95 | 1004.6 |
| 20260903131513 | 17 | 175 | 8.0 | 12.9 | 0.38 | 0.53 | 0.53 | 95 | 1004.8 |
| 20260903130013 | 17 | 157 | 6.4 | 16.1 | 0.38 | 0.51 | 0.51 | 95 | 1004.8 |
| 20260903124509 | 16 | 174 | 9.7 | 14.5 | 0.41 | 0.51 | 0.51 | 95 | 1005.0 |
| 20260903123019 | 16 | 176 | 8.0 | 12.9 | 0.23 | 0.33 | 0.33 | 94 | 1005.3 |
| 20260903121508 | 16 | 160 | 4.8 | 11.3 | 0.05 | 0.15 | 0.15 | 94 | 1005.2 |
| 20260903120004 | 16 | 167 | 3.2 | 9.7 | 0.03 | 0.18 | 0.15 | 94 | 1005.4 |
| 20260903114604 | 16 | 221 | 8.0 | 12.9 | 0.00 | 0.15 | 0.13 | 94 | 1005.9 |
| 20260903113100 | 16 | 169 | 11.3 | 16.1 | 0.00 | 0.15 | 0.13 | 94 | 1006.0 |
| 20260903111559 | 16 | 186 | 9.7 | 17.7 | 0.00 | 0.15 | 0.13 | 94 | 1006.2 |
| 20260903110058 | 16 | 180 | 8.0 | 17.7 | 0.00 | 0.15 | 0.13 | 94 | 1006.2 |
| 20260903104605 | 16 | 182 | 11.3 | 16.1 | 0.00 | 0.15 | 0.13 | 94 | 1006.4 |
| 20260903103055 | 16 | 175 | 9.7 | 16.1 | 0.00 | 0.15 | 0.13 | 94 | 1006.6 |
| 20260903101553 | 16 | 185 | 6.4 | 14.5 | 0.00 | 0.15 | 0.13 | 94 | 1006.9 |
| 20260903100052 | 16 | 212 | 8.0 | 16.1 | 0.03 | 0.15 | 0.13 | 94 | 1007.1 |
| 20260903094558 | 16 | 179 | 11.3 | 19.3 | 0.03 | 0.15 | 0.13 | 94 | 1007.3 |
| 20260903093055 | 16 | 187 | 11.3 | 16.1 | 0.03 | 0.15 | 0.13 | 94 | 1007.3 |
| 20260903091547 | 16 | 194 | 9.7 | 17.7 | 0.00 | 0.15 | 0.10 | 94 | 1007.6 |
| 20260903090045 | 16 | 196 | 8.0 | 17.7 | 0.00 | 0.15 | 0.10 | 94 | 1008.0 |
| 20260903084542 | 15 | 171 | 8.0 | 16.1 | 0.00 | 0.15 | 0.10 | 95 | 1008.3 |
| 20260903083040 | 16 | 185 | 4.8 | 11.3 | 0.00 | 0.15 | 0.10 | 95 | 1008.4 |
| 20260903081542 | 15 | 180 | 1.6 | 4.8 | 0.00 | 0.15 | 0.10 | 95 | 1008.6 |
| 20260903080036 | 15 | 207 | 1.6 | 12.9 | 0.03 | 0.15 | 0.10 | 95 | 1008.7 |
| 20260903074534 | 15 | 194 | 8.0 | 12.9 | 0.05 | 0.15 | 0.10 | 95 | 1008.8 |
| 20260903073033 | 15 | 204 | 4.8 | 9.7 | 0.05 | 0.15 | 0.10 | 95 | 1009.0 |
| 20260903071526 | 15 | 182 | 3.2 | 9.7 | 0.05 | 0.15 | 0.10 | 95 | 1009.1 |
| 20260903070023 | 14 | 161 | 1.6 | 6.4 | 0.05 | 0.13 | 0.08 | 95 | 1009.3 |
| 20260903064521 | 13 | 160 | 0.0 | 3.2 | 0.03 | 0.10 | 0.05 | 95 | 1009.5 |
| 20260903063017 | 13 | 164 | 0.0 | 1.6 | 0.03 | 0.10 | 0.05 | 95 | 1009.6 |
| 20260903061515 | 13 | 163 | 0.0 | 8.0 | 0.05 | 0.10 | 0.05 | 95 | 1009.7 |
| 20260903060014 | 13 | 157 | 0.0 | 3.2 | 0.03 | 0.08 | 0.05 | 95 | 1009.9 |
| 20260903054511 | 12 | 163 | 0.0 | 3.2 | 0.03 | 0.08 | 0.05 | 95 | 1010.1 |
| 20260903053009 | 12 | 169 | 0.0 | 1.6 | 0.03 | 0.08 | 0.05 | 95 | 1010.2 |
| 20260903051504 | 12 | 169 | 0.0 | 1.6 | 0.00 | 0.05 | 0.03 | 95 | 1010.3 |
| 20260903050003 | 12 | 170 | 0.0 | 3.2 | 0.00 | 0.05 | 0.03 | 95 | 1010.5 |
| 20260903044502 | 12 | 170 | 0.0 | 1.6 | 0.00 | 0.05 | 0.03 | 94 | 1010.6 |